CW0262 Weather Reports


Display with metric or nautical units.
time (UTC)temp
F
wind
direction
speed
MPH
gust
MPH
rain 1hr
in
rain 24hr
in
rain mn
in
humidity
%
barometer
mb
20260502130704 88 213 9.0 13.0 0.00 0.00 0.00 61 1010.0
20260502130204 87 225 7.0 13.0 0.00 0.00 0.00 63 1010.0
20260502123704 81 216 7.0 10.0 0.00 0.00 0.00 74 1010.0
20260502123204 81 207 6.0 10.0 0.00 0.00 0.00 74 1010.0
20260502121704 79 217 6.0 8.0 0.00 0.00 0.00 78 1010.0
20260502121204 78 190 5.0 6.0 0.00 0.00 0.00 81 1010.0
20260502120705 77 212 3.0 5.0 0.00 0.00 0.00 82 1010.0
20260502120204 77 217 4.0 7.0 0.00 0.00 0.00 82 1010.0
20260502114703 75 229 3.0 6.0 0.00 0.00 0.00 85 1010.0
20260502114204 74 237 2.0 3.0 0.00 0.00 0.00 86 1010.0
20260502113704 74 229 2.0 3.0 0.00 0.00 0.00 86 1010.0
20260502113204 74 234 3.0 5.0 0.00 0.00 0.00 86 1010.0
20260502111703 73 237 2.0 3.0 0.00 0.00 0.00 89 1010.0
20260502111204 72 224 3.0 6.0 0.00 0.00 0.00 89 1010.0
20260502110704 71 236 2.0 3.0 0.00 0.00 0.00 90 1010.0
20260502110204 71 231 3.0 6.0 0.00 0.00 0.00 90 1010.0
20260502104704 71 231 3.0 3.0 0.00 0.00 0.00 90 1010.0
20260502104204 71 232 1.0 6.0 0.00 0.00 0.00 90 1010.0
20260502101704 71 231 3.0 6.0 0.00 0.00 0.00 91 1010.0
20260502101204 71 233 2.0 5.0 0.00 0.00 0.00 91 1010.0
20260502100705 71 231 2.0 3.0 0.00 0.00 0.00 92 1010.0
20260502100204 71 247 3.0 6.0 0.00 0.00 0.00 92 1010.0
20260502091204 72 234 5.0 6.0 0.00 0.00 0.00 91 1010.0
20260502090705 72 213 3.0 6.0 0.00 0.00 0.00 90 1010.0
20260502090204 72 197 3.0 6.0 0.00 0.00 0.00 90 1010.0
20260502071204 74 234 6.0 8.0 0.00 0.00 0.00 89 1010.0
20260502070704 74 232 6.0 8.0 0.00 0.00 0.00 89 1010.0
20260502070205 75 219 5.0 7.0 0.00 0.00 0.00 89 1010.0
20260502064703 75 224 4.0 6.0 0.00 0.00 0.00 89 1010.0
20260502063703 75 239 5.0 6.0 0.00 0.00 0.00 88 1010.0
20260502063203 75 231 4.0 6.0 0.00 0.00 0.00 87 1010.0
20260502061704 75 227 2.0 5.0 0.00 0.00 0.00 87 1010.0
20260502061204 75 226 3.0 3.0 0.00 0.00 0.00 86 1010.0
20260502060704 75 219 3.0 3.0 0.00 0.00 0.00 86 1010.0
20260502060204 75 241 3.0 5.0 0.00 0.00 0.00 86 1010.0
20260502054704 76 232 0.0 3.0 0.00 0.00 0.00 85 1010.0
20260502054204 76 237 1.0 3.0 0.00 0.00 0.00 85 1010.0
20260502053704 76 238 1.0 3.0 0.00 0.00 0.00 85 1010.0
20260502053205 76 230 1.0 3.0 0.00 0.00 0.00 85 1010.0
20260502051704 76 234 2.0 3.0 0.00 0.00 0.00 84 1010.0
20260502051204 76 243 2.0 3.0 0.00 0.00 0.00 83 1010.0
20260502050704 77 265 3.0 5.0 0.00 0.00 0.00 83 1010.0
20260502050204 77 258 3.0 5.0 0.00 0.00 0.00 83 1010.0
20260502044704 77 228 3.0 5.0 0.00 0.00 0.00 81 1010.0
20260502044204 77 228 3.0 6.0 0.00 0.00 0.00 81 1010.0
20260502043703 77 221 3.0 3.0 0.00 0.00 0.00 81 1010.0
20260502043204 77 220 3.0 6.0 0.00 0.00 0.00 81 1010.0
20260502041705 78 228 5.0 6.0 0.00 0.00 0.00 80 1010.0
20260502041204 78 234 3.0 6.0 0.00 0.00 0.00 80 1010.0
20260502040704 78 228 5.0 6.0 0.00 0.00 0.00 80 1010.0
20260502040204 78 219 3.0 6.0 0.00 0.00 0.00 79 1010.0
20260502034204 78 217 5.0 8.0 0.00 0.00 0.00 79 1010.0
20260502033704 79 221 5.0 6.0 0.00 0.00 0.00 79 1010.0
20260502033204 79 214 6.0 8.0 0.00 0.00 0.00 79 1010.0
20260502031704 79 198 5.0 7.0 0.00 0.00 0.00 78 1010.0
20260502030204 79 219 6.0 9.0 0.00 0.00 0.00 77 1010.0
20260502024205 80 185 6.0 8.0 0.00 0.00 0.00 76 1010.0
20260502023703 80 171 6.0 9.0 0.00 0.00 0.00 76 1010.0
20260502023205 80 186 6.0 10.0 0.00 0.00 0.00 75 1010.0
20260502021704 80 154 6.0 8.0 0.00 0.00 0.00 74 1010.0
20260502021204 80 200 5.0 8.0 0.00 0.00 0.00 73 1010.0
20260502020706 80 163 6.0 9.0 0.00 0.00 0.00 73 1010.0
20260502020204 80 193 6.0 9.0 0.00 0.00 0.00 73 1010.0
20260502014704 81 170 5.0 7.0 0.00 0.00 0.00 73 1010.0
20260502014204 81 168 5.0 8.0 0.00 0.00 0.00 73 1010.0
20260502013703 81 184 4.0 6.0 0.00 0.00 0.00 72 1010.0
20260502013204 81 172 5.0 9.0 0.00 0.00 0.00 72 1010.0
20260502011704 81 181 6.0 9.0 0.00 0.00 0.00 71 1009.0
20260502011204 82 173 6.0 8.0 0.00 0.00 0.00 71 1009.0
20260502010704 82 156 6.0 8.0 0.00 0.00 0.00 70 1009.0
20260502010204 82 169 6.0 10.0 0.00 0.00 0.00 70 1009.0
20260502004704 82 167 6.0 10.0 0.00 0.00 0.00 68 1009.0
20260502004204 83 170 6.0 10.0 0.00 0.00 0.00 68 1009.0
20260502003704 83 176 6.0 9.0 0.00 0.00 0.00 68 1009.0
20260502003205 83 184 6.0 13.0 0.00 0.00 0.00 68 1009.0
20260502001704 84 158 7.0 10.0 0.00 0.00 0.00 65 1008.0
20260502001204 84 163 5.0 10.0 0.00 0.00 0.00 64 1008.0
20260502000204 85 155 6.0 12.0 0.00 0.00 0.00 61 1008.0
20260501234704 87 155 6.0 8.0 0.00 0.00 0.00 59 1008.0
20260501234203 88 143 6.0 8.0 0.00 0.00 0.00 57 1008.0
20260501233704 89 131 6.0 8.0 0.00 0.00 0.00 54 1008.0
20260501233203 90 158 4.0 6.0 0.00 0.00 0.00 46 1008.0
20260501231704 90 232 6.0 8.0 0.00 0.00 0.00 46 1008.0
20260501231204 90 230 7.0 9.0 0.00 0.00 0.00 45 1008.0
20260501230704 90 243 5.0 9.0 0.00 0.00 0.00 44 1008.0
20260501230204 90 208 5.0 10.0 0.00 0.00 0.00 44 1008.0
20260501224704 92 217 7.0 8.0 0.00 0.00 0.00 42 1008.0
20260501224204 92 240 7.0 8.0 0.00 0.00 0.00 42 1008.0
20260501223704 93 227 8.0 12.0 0.00 0.00 0.00 41 1008.0
20260501223205 93 228 10.0 13.0 0.00 0.00 0.00 41 1008.0
20260501221704 94 237 9.0 10.0 0.00 0.00 0.00 40 1007.0
20260501221203 94 248 8.0 13.0 0.00 0.00 0.00 40 1008.0
20260501220705 94 247 7.0 10.0 0.00 0.00 0.00 40 1008.0
20260501220204 95 245 7.0 13.0 0.00 0.00 0.00 40 1008.0
20260501214204 95 224 5.0 12.0 0.00 0.00 0.00 39 1008.0
20260501213704 95 256 9.0 13.0 0.00 0.00 0.00 39 1008.0
20260501213206 96 240 6.0 12.0 0.00 0.00 0.00 39 1008.0
20260501211204 96 226 5.0 10.0 0.00 0.00 0.00 39 1008.0
20260501210704 96 223 7.0 10.0 0.00 0.00 0.00 39 1008.0
20260501210203 96 257 8.0 13.0 0.00 0.00 0.00 39 1008.0
20260501204704 96 239 5.0 10.0 0.00 0.00 0.00 39 1008.0
20260501203703 97 225 4.0 10.0 0.00 0.00 0.00 38 1008.0
20260501203205 97 200 6.0 13.0 0.00 0.00 0.00 38 1008.0
20260501201205 97 248 10.0 13.0 0.00 0.00 0.00 37 1009.0
20260501200704 97 231 5.0 9.0 0.00 0.00 0.00 37 1009.0
20260501200204 97 219 6.0 15.0 0.00 0.00 0.00 37 1009.0
20260501194705 98 225 9.0 15.0 0.00 0.00 0.00 37 1009.0
20260501194204 98 205 9.0 13.0 0.00 0.00 0.00 37 1009.0
20260501193705 98 210 8.0 13.0 0.00 0.00 0.00 37 1009.0
20260501193204 98 219 9.0 13.0 0.00 0.00 0.00 37 1009.0
20260501191704 98 233 8.0 12.0 0.00 0.00 0.00 38 1009.0
20260501191205 97 236 7.0 12.0 0.00 0.00 0.00 38 1010.0
20260501190705 98 236 7.0 13.0 0.00 0.00 0.00 38 1010.0
20260501190205 98 247 6.0 13.0 0.00 0.00 0.00 37 1010.0
20260501184705 98 255 7.0 10.0 0.00 0.00 0.00 38 1010.0
20260501183704 98 220 6.0 12.0 0.00 0.00 0.00 39 1010.0
20260501183204 98 255 8.0 15.0 0.00 0.00 0.00 40 1010.0
20260501181704 97 297 7.0 18.0 0.00 0.00 0.00 40 1010.0
20260501181205 97 211 3.0 8.0 0.00 0.00 0.00 39 1010.0
20260501180704 98 269 6.0 12.0 0.00 0.00 0.00 40 1010.0
20260501180203 98 231 10.0 13.0 0.00 0.00 0.00 40 1010.0
20260501174704 97 232 8.0 14.0 0.00 0.00 0.00 43 1010.0
20260501174205 97 247 6.0 13.0 0.00 0.00 0.00 42 1010.0
20260501173704 96 246 6.0 12.0 0.00 0.00 0.00 43 1010.0
20260501173205 96 274 9.0 13.0 0.00 0.00 0.00 43 1010.0
20260501171705 95 295 3.0 12.0 0.00 0.00 0.00 45 1010.0
20260501171205 96 277 6.0 13.0 0.00 0.00 0.00 45 1011.0
20260501170704 96 279 7.0 12.0 0.00 0.00 0.00 45 1011.0
20260501170203 95 290 5.0 10.0 0.00 0.00 0.00 45 1011.0
20260501164704 96 246 8.0 13.0 0.00 0.00 0.00 46 1011.0
20260501164204 95 226 7.0 12.0 0.00 0.00 0.00 45 1011.0
20260501163704 96 266 5.0 9.0 0.00 0.00 0.00 45 1011.0
20260501163204 96 242 4.0 12.0 0.00 0.00 0.00 45 1011.0
20260501161703 94 277 9.0 10.0 0.00 0.00 0.00 46 1011.0
20260501161203 93 251 5.0 8.0 0.00 0.00 0.00 46 1011.0
20260501160703 94 248 8.0 12.0 0.00 0.00 0.00 47 1011.0
20260501160204 93 272 8.0 12.0 0.00 0.00 0.00 47 1011.0
20260501154204 91 239 6.0 8.0 0.00 0.00 0.00 49 1011.0
20260501153703 92 236 5.0 8.0 0.00 0.00 0.00 51 1011.0
20260501153203 91 243 6.0 8.0 0.00 0.00 0.00 50 1011.0
20260501151703 91 207 6.0 8.0 0.00 0.00 0.00 52 1011.0
20260501151204 90 238 5.0 6.0 0.00 0.00 0.00 52 1011.0
20260501150704 91 313 5.0 8.0 0.00 0.00 0.00 52 1011.0
20260501150204 91 282 3.0 6.0 0.00 0.00 0.00 54 1011.0
20260501144704 90 224 5.0 8.0 0.00 0.00 0.00 57 1011.0
20260501144204 89 284 3.0 6.0 0.00 0.00 0.00 58 1012.0
20260501143705 88 285 7.0 9.0 0.00 0.00 0.00 57 1012.0
20260501141704 87 338 5.0 8.0 0.00 0.00 0.00 61 1012.0
20260501140704 86 296 6.0 8.0 0.00 0.00 0.00 64 1012.0
20260501140204 85 350 5.0 8.0 0.00 0.00 0.00 66 1012.0
20260501134704 84 331 7.0 8.0 0.00 0.00 0.00 67 1012.0
20260501134205 84 322 5.0 9.0 0.00 0.00 0.00 69 1012.0
20260501133703 83 294 5.0 8.0 0.00 0.00 0.00 72 1012.0